Regional Weather Roundup
Issued by NWS

Home | Current Version | Previous Version | Graphics & Text | Print | Product List | Glossary Off
Versions: 1 2 3 4 5 6 7 8 9 10 11 12 13 14 15 16 17 18 19 20 21 22 23 24 25 26 27 28 29 30 31 32 33 34 35 36 37 38 39 40 41 42 43 44 45 46 47 48 49 50

230
ASUS43 KDMX 011708
RWRIA

WEATHER ROUNDUP FOR IOWA
NATIONAL WEATHER SERVICE DES MOINES IA
1200 PM CDT SUN MAY 01 2016

NOTE: "FAIR" INDICATES FEW OR NO CLOUDS BELOW 12,000 FEET WITH NO
SIGNIFICANT WEATHER AND/OR OBSTRUCTIONS TO VISIBILITY.

* - THESE STATIONS ARE NOT NWS STATIONS...THUS NOT UNDER NWS
QUALITY CONTROL.  THEY ALSO DO NOT REPORT WEATHER SUCH
AS PRECIPITATION OR FOG.

IAZ001>003-012>014-020>022-031>034-043>046-011800-
   NORTHWEST IOWA

CITY           SKY/WX    TMP DP  RH WIND       PRES   REMARKS
CARROLL *      PTSUNNY   45  43  93 NE16      30.07S
CHEROKEE *     DRIZZLE   45  43  93 N10G16    30.13R
DENISON *      RAIN      43  43 100 N14G21    30.08R
LE MARS *      MOSUNNY   46  41  81 N15G23    30.17R
ORANGE CITY *  SUNNY     45  39  81 N13G18    30.16R
SHELDON *      PTSUNNY   45  41  87 N17       30.14S
SIOUX CITY     LGT RAIN  46  42  86 N14       30.16R
SPENCER        CLOUDY    46  38  73 N17       30.14R
STORM LAKE *   LGT RAIN  43  41  93 N16G23    30.11S
$$

IAZ055>058-069>071-079>083-090>094-011800-
   SOUTHWEST IOWA

CITY           SKY/WX    TMP DP  RH WIND       PRES   REMARKS
ATLANTIC *     CLOUDY    45  43  93 NE13G20   30.06R FOG
AUDUBON *      RAIN      45  41  87 N13       30.07S
CLARINDA *       N/A    N/A N/A N/A MISG        N/A
COUNCIL BLFS * LGT RAIN  45  45 100 N15G21    30.08R
CRESTON *      LGT RAIN  46  45  93 NE9       30.04R
HARLAN  *      LGT RAIN  45  43  93 NE12G20   30.11R
LAMONI         LGT RAIN  47  46  97 N8        30.00S
RED OAK *      LGT RAIN  46  45  93 NE9       30.06R
SHENANDOAH *   CLOUDY    48  48 100 N10       30.06R
$$

IAZ047>049-059>061-072>074-084-011800-
   CENTRAL IOWA

CITY           SKY/WX    TMP DP  RH WIND       PRES   REMARKS
AMES           CLOUDY    46  42  86 NE14G21   30.04R
ANKENY *       CLOUDY    45  45 100 MISG      30.04R
BOONE *        CLOUDY    45  45 100 NE16      30.04R FOG
CHARITON *     CLOUDY    46  46 100 N7        30.01R FOG
DES MOINES     DRIZZLE   46  43  89 NE8       30.04R FOG
GRINNELL*      CLOUDY    45  45 100 NE9       30.03R FOG
KNOXVILLE *    LGT RAIN  46  45  93 NE8       29.99S
MARSHALLTOWN   CLOUDY    46  43  89 NE16      30.02S
NEWTON *       CLOUDY    45  45 100 NE16      30.02R
PELLA *        LGT RAIN  46  46 100 NE6       30.02F
$$

IAZ004>006-015-016-023>025-035-036-011800-
   NORTH CENTRAL IOWA

CITY           SKY/WX    TMP DP  RH WIND       PRES   REMARKS
ALGONA *       CLOUDY    45  41  87 NE17G23   30.11S FOG
CLARION *      MIX PCPN  45  45 100 NE16      30.08S
ESTHERVILLE    CLOUDY    45  40  82 N15       30.13R
FORT DODGE *   CLOUDY    45  39  81 NE14      30.08S
MASON CITY     CLOUDY    47  42  83 NE12      30.10S
FOREST CITY *  CLOUDY    45  39  81 NE14      30.10R
WEBSTER CITY * PTSUNNY   45  45 100 NE13      30.05S FOG
IOWA FALLS *   DRIZZLE   46  45  93 NE12G17   30.06S
$$

IAZ007>011-017>019-026>030-037>042-050>054-066-011800-
   NORTHEAST IOWA

CITY           SKY/WX    TMP DP  RH WIND       PRES   REMARKS
CEDAR RAPIDS   CLOUDY    47  46  97 NE12      30.00S FOG
CHARLES CITY * CLOUDY    48  43  81 NE12G18   30.07S
CLINTON *      CLOUDY    49  45  86 NE16      30.00S
DECORAH *      CLOUDY    50  39  66 NE8G16    30.05S
DUBUQUE        CLOUDY    48  44  86 NE18      30.01F
MONTICELLO *   CLOUDY    48  45  87 E12G21    30.01F
OELWEIN *      CLOUDY    48  45  87 NE10G17   30.05R
WATERLOO       CLOUDY    47  42  83 NE14      30.04S
$$

IAZ064-065-067-068-078-011800-
   EAST CENTRAL IOWA

CITY           SKY/WX    TMP DP  RH WIND       PRES   REMARKS
DAVENPORT      CLOUDY    49  46  90 E14       30.00S
IOWA CITY      CLOUDY    48  44  86 NE12      30.02S
MT. PLEASANT * CLOUDY    52  52 100 NE7       29.99S FOG
MUSCATINE *    CLOUDY    48  46  93 NE12      30.00S FOG
QUAD CITIES    CLOUDY    50  45  83 E12       29.99R
$$

IAZ062-063-075>077-085>089-095>099-011800-
   SOUTHEAST IOWA

CITY           SKY/WX    TMP DP  RH WIND       PRES   REMARKS
BURLINGTON     CLOUDY    51  49  92 NE6       29.97R
FAIRFIELD *    CLOUDY    48  48 100 NE7       29.99S FOG
FORT MADISON * CLOUDY    50  48  93 CALM      29.99R
KEOKUK *       CLOUDY    52  50  93 CALM      29.97S
OSKALOOSA *    CLOUDY    46  46 100 NE8       30.01R FOG
OTTUMWA        CLOUDY    47  46  97 NE9       30.00R FOG
WASHINGTON *   CLOUDY    48  48 100 NE10      30.01R FOG
$$

ABBREVIATIONS USED IN REMARKS
   TC - TEMPERATURES IN CELSIUS
  WCI - WIND CHILL INDEX
   HX - HEAT INDEX
  VSB - VISIBILITY
$$





USA.gov is the U.S. government's official web portal to all federal, state and local government web resources and services.